IRIDIUM 143

Last updated on Fri Sep 11 2026 00:03:06 GMT+0000 (Coordinated Universal Time)

1 43258U 18030K 26253.52577550 .00000028 00000+0 27867-5 0 9992 2 43258 86.3912 254.8660 0002243 87.1745 272.9707 14.34217615442320
UTC large
Height (km)
Speed (km/s)
/
Latitude / Longitude
Inclination (degrees)
Orbital Period (minutes)
Azimuth
Elevation
Range (km)
Doppler Factor

Next 0 passes for location: London (51.5072 / 0.1276)

No passes found over London.
IRIDIUM 143